Regional Weather Roundup
Issued by NWS Midland/Odessa, TX

Skip options and go directly to product.
Home | Oldest Version | Previous Version | Current Version | All | Text Only | Save Text | Print | Product List | Glossary Off

Skip product version selection by date and time.   

512
ASUS44 KMAF 251410
RWRMAF
MIDLAND AREA WEATHER ROUNDUP
NATIONAL WEATHER SERVICE MIDLAND TX
800 AM CST SUN JAN 25 2015

...IN SOUTHWEST TEXAS AND SOUTHEAST NEW MEXICO...

CITY           SKY/WX    TMP DP  RH WIND       PRES   REMARKS
ALPINE         PTCLDY    34  18  52 W7        30.25R WCI  28
ANDREWS        FAIR      35  28  75 N8        30.20R WCI  29
ARTESIA        MOCLDY    32  28  86 NW12      30.26R WCI  23
BIG SPRING     PTCLDY    34  29  81 NW3       30.19R
CARLSBAD       PTCLDY    37  27  67 N13       30.23R WCI  29
DRYDEN           N/A     46  24  42 W12       30.15R
FORT STOCKTON  CLEAR     38  25  59 W10       30.19R WCI  31
GUAD PASS      NOT AVBL
HOBBS          CLEAR     32  28  86 N10       30.22R WCI  24
MARFA          PTCLDY    27  19  74 E7        30.22R WCI  19
MIDLAND AIRPK  PTCLDY    38  30  72 N8        30.19R WCI  32
MIDLAND INTL   PTCLDY    36  29  75 N9        30.17R WCI  29
ODESSA         CLEAR     36  28  73 N7        30.18R WCI  30
PECOS          CLEAR     32  26  77 W8        30.21R WCI  25
PRESIDIO       FAIR      39  32  77 N6        30.20S WCI  34
SEMINOLE       MOCLDY    38  29  71 N9        30.22R WCI  31
SNYDER         MOCLDY   N/A N/A N/A N6        30.16R
WINK           CLEAR     31  23  72 N9        30.18R WCI  23
$$
...OTHER STATIONS IN TEXAS...

CITY           SKY/WX    TMP DP  RH WIND       PRES   REMARKS
ABILENE        PTCLDY    39  31  72 NW9       30.13R WCI  33
AMARILLO       CLEAR     36  25  64 NW12      30.18R WCI  28
AUSTIN         PTCLDY    38  34  85 W5        30.04R WCI  34
BROWNSVILLE    PTCLDY    48  42  80 SW3       30.12R
CORPUS CHRISTI PTCLDY    40  37  89 SW3       30.10F
DALLAS FTW     PTCLDY    47  35  63 NW13      29.99R
DEL RIO        PTCLDY    40  36  86 NW6       30.13R WCI  36
EL PASO        PTCLDY    31  25  78 N7        30.21R WCI  24
HOUSTON INT    PTCLDY    45  37  73 SW6       30.02S
LUBBOCK        PTCLDY    32  28  85 NW7       30.17R WCI  26
SAN ANGELO     CLEAR     36  31  82 W7        30.13R WCI  30
SAN ANTONIO    PTCLDY    39  34  82 NW6       30.08R WCI  35
WACO           CLEAR     39  34  82 NW7       30.02R WCI  34
WICHITA FALLS  NOT AVBL
$$
...OTHER LOCATIONS IN NEW MEXICO...

CITY           SKY/WX    TMP DP  RH WIND       PRES   REMARKS
ALAMAGORDO     MOCLDY    27  23  86 S7        30.23S WCI  19
ALBUQUERQUE    PTCLDY    27  18  69 E3        30.29R
CANNON AFB     PTCLDY    32  25  76 N10       30.20R WCI  23
CLOVIS         PTCLDY    30  25  80 N9        30.20R WCI  22
HOLLOMAN AFB   MOCLDY    26  22  88 SE5       30.23R WCI  20
ROSWELL        PTCLDY    30  24  78 N7        30.25R WCI  23
RUIDOSO        CLEAR     28  10  47 S7        30.29R WCI  21
SANTA FE       PTCLDY    23  16  74 NW8       30.27R WCI  14
TRUTH OR CONSE MOCLDY    33  22  63 N5        30.24R WCI  29
TUCUMCARI      PTCLDY    24  21  88 W5        30.22R WCI  18
$$

USA.gov is the U.S. government's official web portal to all federal, state and local government web resources and services.